Temp
-4 -6 -6 -7 -6 -6 -6 -6 -7 -8 -9 -10 -10 -11 -11 -11 -11 -12 -12 -12 -12 -12 -12 -12 -12 -12 -12 -12 -13 -13 -13 -13 -13 -11 -12 -12 -11 -10 -9 -9 -9 -9 -9
-7 -7 -7 -7 -6 -7 -7 -8 -10 -10 -11 -11 -12 -12 -12 -12 -12 -12 -12 -12 -13 -13 -13 -13 -13 -13 -13 -13 -13 -13 -13 -13 -13 -13 -14 -14 -12 -12 -11 -10 -10 -10 -10
-7 -7 -7 -7 -8 -8 -9 -10 -11 -11 -12 -12 -13 -13 -13 -13 -13 -13 -13 -14 -14 -14 -14 -14 -14 -14 -14 -14 -14 -13 -14 -14 -14 -14 -13 -13 -13 -13 -12 -12 -12 -12 -11
-7 -7 -8 -8 -9 -9 -11 -11 -12 -13 -13 -13 -13 -13 -13 -13 -14 -14 -15 -15 -15 -15 -15 -15 -15 -14 -14 -14 -14 -14 -14 -14 -14 -14 -14 -14 -14 -14 -13 -13 -13 -13 -12
-8 -8 -8 -9 -10 -11 -12 -13 -13 -14 -14 -14 -14 -14 -14 -15 -15 -15 -15 -16 -15 -15 -15 -15 -15 -15 -15 -15 -15 -14 -14 -14 -14 -15 -16 -15 -14 -15 -15 -15 -14 -14 -13
-8 -9 -9 -10 -11 -12 -13 -14 -14 -15 -14 -15 -15 -15 -15 -15 -15 -16 -16 -16 -16 -16 -16 -16 -16 -15 -15 -15 -15 -15 -15 -15 -15 -15 -14 -14 -14 -14 -14 -14 -14 -14 -13
-9 -10 -10 -11 -13 -13 -14 -15 -15 -15 -15 -15 -15 -15 -16 -16 -16 -16 -16 -17 -17 -16 -16 -16 -16 -16 -16 -16 -16 -15 -15 -15 -15 -15 -15 -14 -14 -14 -15 -15 -15 -14 -14
-10 -11 -11 -13 -13 -14 -15 -15 -15 -15 -15 -16 -16 -16 -16 -17 -17 -17 -17 -17 -17 -17 -17 -17 -17 -16 -16 -16 -16 -16 -15 -15 -15 -15 -15 -15 -15 -15 -15 -15 -15 -15 -15
-11 -12 -13 -14 -14 -15 -15 -15 -15 -15 -16 -16 -16 -16 -17 -17 -17 -17 -17 -17 -17 -17 -17 -17 -17 -17 -17 -17 -16 -16 -16 -16 -16 -16 -16 -16 -15 -16 -16 -16 -15 -15 -15
-12 -12 -13 -14 -15 -15 -15 -15 -16 -16 -16 -16 -17 -17 -17 -18 -18 -18 -18 -18 -18 -17 -17 -17 -17 -17 -17 -17 -17 -17 -16 -16 -16 -16 -16 -16 -16 -16 -16 -16 -16 -16 -16
-12 -13 -14 -15 -15 -15 -15 -16 -16 -16 -16 -16 -17 -17 -18 -18 -18 -18 -18 -18 -18 -18 -18 -18 -18 -17 -17 -17 -17 -16 -16 -16 -16 -16 -16 -16 -16 -16 -16 -16 -16 -16 -16
-13 -14 -15 -15 -15 -15 -16 -16 -16 -16 -16 -17 -18 -18 -18 -18 -18 -18 -18 -18 -18 -18 -18 -18 -18 -18 -17 -17 -17 -16 -16 -16 -16 -16 -16 -16 -16 -16 -16 -16 -16 -16 -16
-14 -15 -15 -16 -16 -16 -16 -16 -16 -17 -17 -18 -18 -18 -18 -18 -19 -19 -19 -19 -19 -19 -19 -18 -18 -18 -17 -17 -17 -16 -16 -17 -17 -17 -17 -17 -17 -17 -17 -16 -16 -16 -16
-14 -15 -16 -16 -16 -16 -16 -16 -17 -17 -17 -18 -18 -18 -18 -19 -19 -19 -19 -19 -19 -19 -18 -18 -18 -17 -17 -17 -17 -16 -16 -17 -17 -17 -17 -17 -17 -16 -16 -16 -16 -16 -16
-14 -16 -16 -16 -16 -16 -16 -16 -17 -17 -18 -18 -18 -18 -19 -19 -19 -19 -19 -19 -18 -18 -18 -18 -17 -17 -17 -17 -16 -16 -17 -17 -17 -17 -17 -16 -16 -16 -16 -16 -16 -16 -17
-15 -16 -16 -16 -16 -16 -16 -17 -17 -17 -18 -18 -18 -18 -19 -19 -19 -19 -19 -18 -18 -18 -18 -17 -17 -17 -17 -17 -17 -16 -16 -17 -17 -16 -16 -16 -16 -16 -16 -16 -16 -16 -16
-16 -16 -16 -16 -16 -16 -17 -17 -17 -17 -17 -18 -18 -18 -19 -19 -19 -19 -18 -18 -18 -17 -18 -17 -17 -17 -17 -16 -16 -16 -16 -16 -16 -16 -17 -16 -16 -16 -16 -16 -16 -16 -16
-16 -15 -16 -16 -16 -17 -17 -17 -17 -17 -17 -18 -18 -18 -19 -19 -19 -19 -18 -18 -18 -17 -17 -17 -17 -17 -17 -16 -16 -16 -15 -15 -16 -16 -16 -16 -16 -16 -16 -16 -16 -16 -16
-15 -15 -15 -16 -16 -17 -17 -17 -17 -17 -17 -18 -18 -18 -19 -19 -18 -18 -18 -18 -17 -17 -17 -17 -17 -17 -17 -16 -16 -15 -15 -15 -15 -15 -15 -15 -16 -16 -16 -16 -16 -16 -16
-15 -15 -16 -16 -16 -17 -17 -17 -17 -17 -17 -18 -18 -18 -18 -18 -19 -18 -18 -18 -17 -17 -17 -17 -17 -17 -16 -16 -16 -16 -16 -15 -15 -15 -15 -15 -15 -15 -16 -16 -16 -16 -16
-15 -16 -16 -16 -16 -17 -17 -17 -17 -17 -17 -18 -18 -18 -18 -18 -18 -18 -18 -18 -18 -17 -17 -17 -17 -17 -16 -16 -16 -16 -16 -16 -16 -15 -15 -15 -15 -15 -15 -16 -16 -16 -16
-15 -16 -16 -16 -16 -17 -17 -17 -17 -17 -17 -18 -18 -18 -18 -18 -18 -19 -18 -18 -18 -18 -18 -18 -18 -17 -17 -17 -16 -16 -16 -16 -16 -16 -16 -16 -15 -15 -15 -16 -16 -16 -16
-16 -16 -16 -16 -16 -17 -17 -17 -17 -17 -17 -18 -18 -18 -18 -18 -18 -19 -19 -18 -18 -18 -18 -18 -18 -18 -17 -17 -17 -17 -16 -16 -16 -16 -16 -16 -16 -16 -16 -16 -16 -16 -16
-15 -16 -16 -16 -16 -17 -17 -17 -18 -18 -18 -18 -18 -18 -18 -18 -19 -19 -19 -19 -19 -19 -19 -19 -19 -19 -18 -18 -17 -17 -17 -17 -17 -16 -16 -16 -16 -16 -16 -16 -16 -16 -16
-16 -16 -16 -16 -16 -17 -17 -17 -18 -18 -18 -18 -18 -18 -18 -18 -18 -19 -19 -19 -19 -19 -19 -19 -19 -19 -19 -18 -18 -18 -18 -17 -17 -17 -17 -17 -17 -16 -16 -16 -16 -16 -16
-16 -16 -16 -16 -16 -17 -17 -17 -18 -18 -18 -18 -18 -18 -18 -18 -19 -19 -19 -19 -19 -19 -19 -19 -19 -19 -19 -19 -19 -18 -18 -18 -18 -18 -17 -17 -17 -17 -17 -17 -17 -17 -17
Height
3076 3069 3062 3056 3050 3044 3037 3029 3021 3013 3008 3003 2998 2993 2988 2985 2982 2977 2973 2969 2966 2963 2961 2958 2956 2954 2952 2950 2948 2947 2947 2946 2944 2945 2946 2947 2948 2949 2950 2950 2951 2951 2951
3064 3058 3052 3047 3039 3031 3024 3017 3009 3003 2997 2992 2988 2984 2980 2976 2972 2968 2965 2961 2959 2955 2952 2950 2948 2946 2943 2941 2939 2938 2936 2935 2934 2933 2935 2935 2935 2935 2936 2937 2939 2939 2940
3056 3050 3042 3036 3029 3021 3014 3006 3001 2994 2988 2983 2979 2975 2971 2967 2964 2959 2955 2952 2949 2946 2943 2940 2938 2935 2934 2932 2930 2928 2926 2925 2923 2922 2922 2923 2923 2924 2924 2924 2924 2925 2927
3049 3042 3033 3025 3018 3011 3004 2996 2991 2986 2981 2976 2972 2967 2962 2958 2954 2949 2946 2941 2938 2935 2932 2929 2927 2925 2923 2921 2919 2917 2915 2914 2913 2912 2912 2912 2912 2913 2912 2911 2911 2912 2912
3038 3031 3023 3016 3008 3001 2995 2989 2983 2978 2972 2967 2962 2957 2952 2948 2943 2941 2937 2932 2928 2925 2921 2919 2916 2914 2912 2910 2906 2906 2905 2903 2903 2901 2900 2900 2901 2901 2900 2901 2899 2900 2900
3028 3021 3014 3007 2999 2992 2988 2982 2976 2970 2965 2960 2955 2950 2945 2940 2934 2930 2926 2923 2919 2915 2912 2909 2906 2902 2900 2897 2895 2893 2893 2891 2890 2889 2889 2888 2890 2889 2889 2888 2888 2887 2886
3020 3012 3004 2998 2991 2985 2980 2975 2969 2964 2958 2953 2947 2941 2935 2930 2924 2920 2916 2911 2907 2904 2901 2897 2894 2892 2889 2885 2883 2881 2881 2880 2878 2878 2877 2877 2877 2878 2878 2877 2876 2876 2876
3012 3005 2997 2990 2984 2978 2973 2967 2962 2957 2951 2945 2938 2932 2927 2921 2915 2910 2905 2900 2896 2893 2890 2886 2883 2881 2879 2875 2872 2871 2869 2868 2867 2866 2865 2866 2866 2866 2866 2866 2866 2865 2865
3003 2996 2990 2983 2977 2971 2966 2960 2955 2950 2944 2937 2930 2924 2919 2913 2906 2900 2895 2890 2886 2883 2880 2876 2873 2870 2868 2865 2862 2860 2859 2859 2857 2856 2855 2854 2854 2854 2856 2856 2856 2855 2855
2996 2989 2983 2976 2971 2965 2960 2955 2949 2943 2936 2929 2923 2917 2911 2905 2897 2890 2884 2879 2876 2872 2870 2867 2863 2861 2859 2856 2854 2852 2850 2850 2848 2846 2844 2844 2844 2845 2846 2846 2848 2846 2846
2987 2981 2975 2970 2965 2960 2955 2950 2943 2936 2930 2924 2917 2910 2903 2895 2888 2882 2876 2871 2867 2863 2860 2858 2855 2852 2850 2848 2846 2844 2842 2840 2837 2835 2834 2834 2836 2837 2838 2838 2839 2839 2838
2980 2974 2969 2964 2959 2955 2949 2943 2936 2930 2923 2917 2909 2902 2895 2888 2881 2875 2869 2864 2859 2855 2853 2850 2848 2846 2843 2841 2839 2836 2833 2832 2830 2829 2829 2829 2830 2831 2832 2832 2832 2831 2831
2973 2967 2962 2958 2954 2949 2943 2937 2930 2924 2917 2910 2903 2896 2889 2881 2874 2868 2863 2858 2854 2850 2847 2844 2842 2840 2838 2835 2831 2829 2829 2828 2827 2827 2827 2827 2827 2827 2827 2826 2826 2826 2826
2965 2960 2956 2952 2948 2944 2937 2931 2925 2919 2912 2905 2897 2890 2883 2876 2869 2862 2857 2854 2850 2846 2843 2841 2838 2836 2834 2830 2827 2826 2826 2826 2825 2825 2825 2826 2825 2825 2823 2822 2821 2821 2821
2957 2953 2951 2947 2942 2937 2932 2926 2922 2914 2907 2900 2892 2885 2876 2870 2864 2858 2854 2850 2847 2843 2840 2838 2836 2834 2832 2828 2825 2824 2824 2823 2823 2823 2824 2824 2824 2823 2822 2820 2819 2818 2818
2950 2948 2945 2942 2937 2932 2928 2923 2916 2911 2903 2896 2888 2881 2874 2867 2861 2856 2853 2849 2846 2842 2840 2837 2835 2834 2832 2830 2827 2825 2823 2822 2822 2822 2822 2823 2823 2823 2822 2820 2818 2816 2815
2946 2944 2940 2936 2932 2928 2924 2919 2914 2907 2899 2893 2885 2877 2871 2864 2859 2855 2852 2848 2846 2842 2840 2838 2836 2834 2833 2830 2828 2825 2823 2822 2821 2821 2821 2821 2821 2822 2821 2820 2818 2817 2816
2942 2939 2936 2932 2929 2924 2920 2916 2911 2905 2897 2890 2883 2876 2868 2862 2858 2854 2851 2848 2846 2843 2841 2839 2837 2835 2833 2831 2829 2827 2825 2823 2822 2820 2819 2819 2820 2820 2820 2819 2818 2817 2817
2938 2935 2932 2929 2925 2921 2917 2913 2908 2902 2895 2888 2882 2875 2868 2861 2857 2854 2851 2849 2846 2844 2842 2840 2838 2836 2834 2832 2830 2828 2826 2825 2823 2821 2818 2817 2817 2818 2818 2818 2817 2817 2816
2935 2932 2929 2926 2922 2918 2914 2910 2905 2900 2893 2887 2881 2875 2868 2862 2857 2854 2851 2848 2846 2844 2843 2841 2838 2837 2836 2833 2831 2829 2828 2826 2824 2822 2820 2817 2816 2816 2816 2816 2816 2815 2814
2931 2929 2926 2923 2919 2915 2911 2907 2903 2897 2892 2886 2880 2875 2869 2863 2858 2854 2851 2848 2846 2844 2842 2841 2839 2838 2836 2834 2833 2831 2829 2827 2825 2823 2821 2819 2817 2816 2815 2814 2814 2814 2812
2928 2926 2923 2920 2916 2913 2909 2905 2900 2895 2890 2885 2880 2875 2870 2864 2859 2854 2851 2848 2846 2844 2842 2841 2840 2838 2837 2835 2833 2831 2829 2827 2825 2824 2822 2820 2819 2817 2815 2814 2813 2812 2810
2924 2922 2919 2916 2913 2910 2906 2902 2898 2893 2889 2884 2879 2875 2870 2865 2860 2855 2852 2849 2846 2844 2842 2841 2840 2838 2837 2835 2833 2831 2829 2827 2826 2824 2822 2821 2820 2818 2816 2814 2813 2811 2809
2921 2918 2916 2913 2910 2907 2903 2899 2896 2891 2887 2883 2878 2874 2870 2865 2861 2857 2853 2849 2846 2843 2841 2840 2838 2837 2836 2834 2833 2831 2829 2828 2826 2825 2822 2821 2819 2817 2816 2814 2813 2811 2809
2917 2914 2912 2909 2906 2903 2900 2896 2893 2889 2885 2881 2876 2872 2868 2865 2861 2857 2853 2850 2847 2844 2841 2839 2838 2836 2835 2834 2832 2830 2829 2827 2826 2824 2822 2820 2818 2816 2815 2813 2811 2810 2808
2913 2911 2909 2906 2903 2900 2896 2893 2889 2886 2882 2878 2874 2870 2867 2863 2860 2856 2853 2850 2847 2844 2841 2839 2837 2836 2834 2832 2831 2829 2828 2826 2824 2822 2821 2819 2817 2815 2814 2812 2810 2808 2806
Wind_Speed
45 43 44 43 43 45 48 52 53 49 42 37 33 31 31 31 35 37 36 37 35 33 31 32 31 32 35 34 34 33 32 30 33 33 32 33 36 40 42 45 47 47 48
38 36 35 39 45 49 53 51 44 39 36 33 32 31 30 35 39 39 38 35 36 34 34 34 35 33 34 35 35 35 36 36 36 38 34 34 38 39 41 42 42 44 45
31 36 42 45 50 51 49 44 39 35 33 31 30 32 33 34 35 36 35 36 36 37 36 35 35 34 35 35 36 37 38 39 39 40 41 39 40 39 40 42 40 41 42
39 40 44 48 49 48 44 40 36 35 31 31 33 37 39 39 39 39 37 38 38 39 37 35 34 33 33 34 35 37 38 39 40 41 42 42 41 40 41 42 42 40 41
40 45 47 48 47 44 40 37 37 37 35 35 35 35 33 33 35 34 35 37 38 36 35 34 33 34 33 35 37 37 37 38 39 39 37 39 39 37 37 39 42 42 42
43 46 48 47 44 40 37 36 36 33 32 31 30 31 34 36 39 38 37 36 36 36 36 34 34 35 35 36 36 37 37 38 39 39 40 42 41 42 41 41 40 41 43
45 47 47 45 42 37 35 32 31 30 30 32 35 37 38 37 38 36 36 35 35 33 33 33 32 32 34 35 34 34 33 34 36 37 39 39 38 37 37 38 39 39 39
45 45 44 42 38 35 32 31 29 32 35 37 37 35 34 34 36 35 35 34 34 33 33 32 33 32 31 31 32 31 31 32 32 33 34 34 35 34 34 34 35 36 37
45 43 39 38 39 32 32 32 34 37 37 35 33 34 35 36 39 39 38 37 36 33 32 31 31 30 29 30 30 30 30 29 29 31 31 31 29 29 29 31 33 34 35
44 40 36 35 33 32 32 34 37 37 35 34 34 35 37 37 37 38 37 36 34 31 29 28 28 27 26 26 27 29 28 28 31 32 32 29 27 25 25 28 26 30 30
41 37 34 32 30 31 33 35 36 34 34 33 36 37 38 38 35 32 32 31 30 29 27 26 23 23 21 22 24 26 28 29 27 25 24 24 24 23 23 24 25 26 25
37 34 32 28 29 31 34 34 33 33 33 36 37 39 38 35 32 30 28 28 28 27 23 21 20 20 19 20 22 23 22 18 14 10 9 10 13 15 17 20 23 24 23
36 33 28 27 29 31 34 32 32 31 35 36 39 40 36 34 31 28 27 24 22 21 20 19 18 17 17 18 19 15 10 7 5 3 3 4 6 8 12 15 19 20 20
36 30 25 28 29 30 31 30 30 33 34 38 40 37 36 31 29 26 21 18 17 16 15 14 13 12 14 14 9 6 6 6 5 4 4 3 4 5 7 8 10 13 15
30 23 25 27 29 28 27 26 27 31 35 37 36 36 35 31 27 22 20 17 14 12 10 10 8 9 12 11 3 1 1 1 3 3 3 2 1 3 5 6 7 8 10
20 21 25 26 26 25 23 25 28 30 34 35 34 34 32 29 23 18 17 15 13 11 10 9 7 7 7 9 10 8 5 3 1 1 3 2 1 2 4 6 7 7 5
18 22 23 23 22 21 22 23 25 31 33 30 32 33 31 27 19 15 14 13 12 12 12 10 8 7 7 10 12 14 14 12 5 1 3 3 3 3 3 1 3 5 6
19 19 20 20 19 20 20 21 25 29 31 30 32 32 30 24 18 13 12 12 13 12 11 10 9 8 10 11 11 12 13 13 12 8 2 5 4 4 3 3 2 1 2
16 17 18 18 19 18 18 20 24 28 30 30 30 31 31 23 18 13 12 11 11 10 10 9 9 9 12 11 11 11 11 10 11 12 10 2 5 5 4 5 5 4 4
15 16 17 18 19 18 19 20 23 26 28 29 29 29 30 23 18 14 12 11 10 10 9 9 8 10 10 10 11 11 10 10 10 11 11 10 2 3 6 6 6 7 8
15 15 17 18 19 18 18 19 22 24 26 27 28 28 28 27 20 14 12 11 10 10 9 8 7 7 8 9 10 10 9 10 11 11 10 10 9 5 1 4 7 9 7
15 15 16 18 19 18 18 18 20 23 24 25 26 27 26 27 24 17 13 12 10 9 8 6 5 6 7 8 9 10 10 10 10 9 8 9 8 7 7 5 3 4 6
15 15 15 18 19 18 17 18 19 22 23 23 24 24 25 25 24 21 16 14 11 9 7 5 3 4 6 7 8 8 8 8 8 7 7 7 7 7 6 6 5 5 5
15 15 16 18 18 18 18 18 19 21 22 23 22 22 22 22 22 21 19 15 12 9 9 9 6 4 5 6 7 7 7 7 7 7 6 7 7 6 6 6 6 6 6
15 16 16 17 18 18 19 20 20 20 21 21 21 20 20 21 20 19 18 17 14 12 10 10 9 7 4 5 6 6 7 7 7 7 7 7 7 7 8 7 7 7 7
15 15 15 15 17 18 19 20 20 20 20 20 20 19 18 19 19 18 17 16 15 13 12 10 9 8 7 6 6 7 8 8 8 8 8 8 7 8 8 9 9 9 9
Wind_Direction
309 311 307 306 307 308 308 306 306 311 313 308 304 299 296 296 298 293 288 294 303 300 299 299 296 290 287 287 287 287 284 281 279 274 272 270 265 260 256 258 260 261 263
305 305 309 311 309 308 310 311 315 313 311 308 305 304 299 292 291 294 295 293 293 293 293 291 289 286 284 284 282 282 280 278 276 274 272 270 271 270 271 267 263 262 262
310 315 314 308 309 311 313 314 316 317 315 312 303 296 294 294 295 295 294 293 292 292 289 287 285 283 281 278 277 277 275 274 274 275 275 275 275 274 274 274 271 267 263
316 310 309 312 313 312 314 316 319 319 307 299 294 294 296 294 294 293 295 292 291 289 288 287 286 284 281 278 275 273 273 272 273 274 274 274 273 273 273 273 273 272 269
313 315 316 316 315 317 319 319 319 315 311 309 306 304 305 304 300 301 297 296 294 293 292 291 288 284 281 277 275 273 272 272 272 273 272 271 271 270 269 270 269 269 268
317 317 318 318 317 317 316 318 317 314 312 310 309 308 307 306 302 300 298 296 294 293 291 289 286 284 282 279 276 275 274 272 271 271 271 271 272 272 272 273 272 269 269
318 318 319 318 317 314 316 317 316 317 316 314 311 310 309 309 307 305 302 298 295 293 291 290 286 284 285 284 283 279 275 271 270 269 270 269 270 268 267 264 263 265 266
319 321 320 319 312 315 321 321 324 323 320 318 316 315 314 313 310 308 305 302 298 295 294 291 291 291 290 288 284 281 277 275 273 272 272 270 267 265 262 261 262 263 263
321 320 319 314 311 319 324 326 326 323 321 321 321 320 319 317 312 309 306 302 301 299 297 295 294 294 291 286 284 281 278 279 279 277 274 275 271 265 262 262 264 267 265
317 318 318 314 315 320 323 324 321 323 323 323 321 320 318 316 312 309 307 306 305 302 299 296 294 291 286 283 279 280 282 281 279 278 277 272 269 266 263 263 264 267 268
316 317 316 316 316 319 321 321 322 324 322 322 322 323 322 321 317 314 310 307 304 301 300 298 296 289 285 281 281 280 282 285 282 279 273 262 258 258 259 258 263 265 267
315 315 315 314 316 318 321 322 324 324 324 325 326 326 327 325 322 318 312 309 305 303 305 301 295 295 294 291 289 289 286 286 287 282 271 260 258 258 258 260 262 264 265
314 311 314 316 317 321 322 325 326 326 326 328 329 330 330 328 324 321 316 314 311 307 303 300 299 300 301 303 297 288 277 278 274 265 255 260 276 288 284 275 267 264 264
305 308 316 316 318 320 324 327 328 328 330 330 331 331 331 331 328 327 323 321 316 308 305 304 307 310 322 323 303 277 268 250 243 232 227 251 297 315 315 304 288 271 268
304 313 314 315 318 324 326 327 331 332 333 333 333 334 334 335 335 333 331 333 332 328 326 326 328 343 347 2 356 246 233 256 221 202 205 261 328 338 345 338 319 288 272
310 316 314 317 322 326 327 330 334 338 336 336 337 337 337 337 336 335 338 342 343 347 351 355 356 5 8 33 52 65 62 58 63 203 202 184 249 329 348 8 13 6 316
320 316 320 324 327 327 329 334 337 339 341 342 342 341 341 341 339 340 345 351 359 8 12 13 19 28 35 43 43 48 46 38 21 316 228 213 214 254 296 7 23 18 28
322 322 324 327 330 329 333 337 339 343 347 347 347 348 346 344 343 344 350 356 4 8 14 20 28 38 48 43 41 40 38 35 34 30 294 245 237 243 276 278 262 313 3
322 323 327 332 334 332 334 338 341 346 351 351 351 353 352 348 346 347 352 354 355 1 6 12 16 42 32 29 32 35 33 30 28 31 30 335 234 236 251 253 259 263 264
319 324 329 335 338 335 335 337 340 346 351 355 354 356 358 354 348 343 346 345 346 351 355 359 15 32 17 28 33 35 35 31 29 28 30 33 24 235 241 250 260 275 271
318 320 328 335 339 338 336 337 340 345 350 355 357 357 0 1 354 347 345 344 342 342 346 356 17 18 21 24 23 22 23 27 31 32 30 34 38 33 324 263 263 263 273
314 315 324 332 337 338 337 338 342 346 349 352 356 359 0 3 2 355 349 345 341 338 336 340 354 3 6 9 10 10 15 21 21 22 26 30 31 38 43 32 346 301 294
313 315 320 327 333 335 336 338 340 344 347 348 351 355 359 1 3 2 354 347 341 336 325 308 304 333 352 359 2 3 4 6 1 1 9 17 20 21 26 23 14 12 7
317 318 319 322 328 332 332 332 334 335 339 343 343 346 352 356 359 0 0 355 347 343 334 314 300 301 323 341 348 351 352 353 351 349 356 358 3 2 360 359 355 352 352
321 321 321 322 327 330 332 332 332 332 332 334 337 337 342 348 351 353 354 357 357 352 347 331 314 303 310 330 337 339 341 341 340 343 347 347 347 343 341 342 341 339 336
319 322 321 323 327 332 335 335 336 336 335 333 331 330 331 336 343 345 346 346 346 346 342 334 325 315 308 306 316 325 329 330 332 332 333 334 337 335 332 332 331 329 327